Montpelier, VT

5:07 PM EST on November 11, 2019 (GMT -0500)
Knapp State

Weather History for KMPV - September, 2019

Change the Weather History Date:

Sunday, September 15, 2019

  Actual Average Record
Temperature  
Mean Temperature 58 °F 58 °F  
Max Temperature 68 °F 69 °F 83 °F (1993)
Min Temperature 48 °F 47 °F 30 °F (1963)
Degree Days  
Heating Degree Days 7 8  
Month to date heating degree days 110 85  
Since 1 July heating degree days 178 193  
Cooling Degree Days 0 1  
Month to date cooling degree days 5 15  
Year to date cooling degree days 216 259  
Growing Degree Days 8 (Base 50)    
Moisture  
Dew Point 50 °F    
Average Humidity 75    
Maximum Humidity 100    
Minimum Humidity 51    
Precipitation  
Precipitation T in 0.10 in 2.18 in (1998)
Month to date precipitation 1.42 1.40  
Year to date precipitation 36.22 26.20  
Sea Level Pressure  
Sea Level Pressure 30.13 in    
Wind  
Wind Speed 5 mph ()    
Max Wind Speed 15 mph    
Max Gust Speed 21 mph    
Visibility 10.0 miles    
Events Rain    
T = Trace of Precipitation, MM = Missing Value Source: Averaged Metar Reports

Daily Weather History Graph

Daily Weather History Graph

Search for Another Location

Airport or City:

Astronomy

Sep. 15, 2019 Rise Set
Actual Time 6:29 AM EDT 7:01 PM EDT
Civil Twilight 5:59 AM EDT 7:30 PM EDT
Nautical Twilight 5:25 AM EDT 8:04 PM EDT
Astronomical Twilight 4:49 AM EDT 8:40 PM EDT
Moon 8:05 PM EDT (9/15) 7:37 AM EDT (9/15)
Length of Visible Light 13h 30m
Length of Day
12h 32m
Full, 98% of the Moon is Illuminated
Sep 15
Full
Sep 21
Last Quarter
Sep 28
New
Oct 5
First Quarter
Oct 13
Full

Hourly Weather History & Observations

Time (EDT) Temp. Dew Point Humidity Pressure Visibility Wind Dir Wind Speed Gust Speed Precip Events Conditions
12:51 AM 57.0 °F 55.0 °F 93% 30.16 in 10.0 mi South 3.5 mph - N/A   Clear
1:51 AM 55.9 °F 54.0 °F 93% 30.15 in 10.0 mi SW 3.5 mph - N/A   Clear
2:51 AM 54.0 °F 52.0 °F 93% 30.16 in 10.0 mi Calm Calm - N/A   Partly Cloudy
3:51 AM 50.0 °F 50.0 °F 100% 30.16 in 10.0 mi South 4.6 mph - N/A   Partly Cloudy
4:51 AM 50.0 °F 50.0 °F 100% 30.16 in 10.0 mi SSE 4.6 mph - N/A   Clear
6:51 AM 51.1 °F 50.0 °F 96% 30.17 in 10.0 mi Calm Calm - N/A   Partly Cloudy
7:51 AM 55.0 °F 53.1 °F 93% 30.17 in 10.0 mi Calm Calm - N/A   Partly Cloudy
8:51 AM 59.0 °F 54.0 °F 83% 30.16 in 10.0 mi NW 6.9 mph - N/A   Partly Cloudy
9:51 AM 62.1 °F 52.0 °F 70% 30.16 in 10.0 mi WNW 11.5 mph - N/A   Clear
10:51 AM 63.0 °F 48.0 °F 58% 30.15 in 10.0 mi NW 8.1 mph 19.6 mph N/A   Clear
11:51 AM 64.9 °F 48.9 °F 56% 30.14 in 10.0 mi Variable 5.8 mph - N/A   Mostly Cloudy
12:51 PM 66.0 °F 48.0 °F 52% 30.12 in 10.0 mi WNW 10.4 mph 20.7 mph N/A   Clear
1:51 PM 66.9 °F 48.0 °F 51% 30.12 in 10.0 mi West 9.2 mph - N/A   Clear
2:51 PM 66.0 °F 48.9 °F 54% 30.10 in 10.0 mi West 9.2 mph - N/A   Clear
3:51 PM 66.9 °F 48.9 °F 52% 30.08 in 10.0 mi West 10.4 mph 16.1 mph N/A   Scattered Clouds
4:51 PM 64.9 °F 48.9 °F 56% 30.09 in 10.0 mi West 5.8 mph - 0.00 in   Overcast
5:51 PM 62.1 °F 52.0 °F 70% 30.09 in 10.0 mi WNW 4.6 mph - 0.00 in Rain Light Rain
6:51 PM 61.0 °F 51.1 °F 70% 30.10 in 10.0 mi NW 6.9 mph - 0.00 in   Overcast
7:51 PM 60.1 °F 50.0 °F 69% 30.11 in 10.0 mi WNW 9.2 mph - N/A   Overcast
8:51 PM 57.9 °F 50.0 °F 75% 30.10 in 10.0 mi North 4.6 mph - N/A   Overcast
9:51 PM 57.9 °F 50.0 °F 75% 30.12 in 10.0 mi West 6.9 mph - N/A   Overcast
10:14 PM 57.0 °F 50.0 °F 77% 30.11 in 10.0 mi NW 11.5 mph - N/A   Overcast
10:22 PM 57.0 °F 50.0 °F 77% 30.12 in 10.0 mi WNW 11.5 mph - N/A   Overcast
10:40 PM 57.0 °F 50.0 °F 77% 30.12 in 10.0 mi NNW 12.7 mph - N/A   Overcast
10:51 PM 55.0 °F 50.0 °F 83% 30.12 in 10.0 mi NW 6.9 mph - N/A   Mostly Cloudy
11:00 PM 55.0 °F 48.9 °F 80% 30.11 in 10.0 mi NW 6.9 mph - N/A   Scattered Clouds
11:51 PM 53.1 °F 46.9 °F 80% 30.12 in 10.0 mi Calm Calm - N/A   Clear